Regional Weather Roundup
Issued by NWS

Home | Current Version | Previous Version | Graphics & Text | Print | Product List | Glossary On
Versions: 1 2 3 4 5 6 7 8 9 10 11 12 13 14 15 16 17 18 19 20 21 22 23 24 25 26 27 28 29 30 31 32 33 34 35 36 37 38 39 40 41 42 43 44 45 46 47 48 49 50
000
ASUS43 KIND 230809
RWRIN

WEATHER ROUNDUP FOR INDIANA
NATIONAL WEATHER SERVICE INDIANAPOLIS IN
400 AM EDT SUN JUL 23 2017

NOTE: "FAIR" INDICATES FEW OR NO CLOUDS BELOW 12,000 FEET WITH NO
SIGNIFICANT WEATHER AND/OR OBSTRUCTIONS TO VISIBILITY.

* - STATION DOES NOT REPORT WEATHER SUCH AS PRECIPITATION OR FOG.

+ - STATION NOT QUALITY CONTROLLED BY THE NATIONAL WEATHER SERVICE.
    USE DATA WITH CAUTION...ESPECIALLY DEWPOINT AND RELATIVE
    HUMIDITY OBSERVATIONS.

INZ001>003-010>013-019-020-230900-
NORTHWEST INDIANA

CITY           SKY/WX    TMP DP  RH WIND       PRES   REMARKS
GARY /AIRPORT/ MOCLDY    71  70  98 CALM      29.79F
KNOX *+        CLOUDY    70  70 100 CALM      29.77F
LA PORTE +     CLOUDY    71  70  96 CALM      29.79S
MICHIGAN CITY+ MOCLDY    68  68 100 CALM      29.79S
MONTICELLO +   CLOUDY    73  72  95 CALM      29.76F
RENSSELAER +   CLOUDY    73  72  94 CALM      29.78F
VALPARAISO     CLEAR     70  69  97 N3        29.79F FOG

$$

LMZ046-743>745-230900-
SOUTHERN LAKE MICHIGAN

STATION/POSITION TIME  TEMP    WIND        PRES    WAVE
                       AIR SEA DIR/SP/G            HT
                 (UTC) (F)     (DEG/KT/KT) (MB)    (FT)
BURNS HARBOR     0740   73      CALM  /  1 1009.1F
MICHIGAN CITY    0740   73     140/  3/  3   N/A
5NW MICH CITY    0800   74 75   CALM  /  2   N/A     0

$$

INZ004-005-014>016-021>024-230900-
NORTH CENTRAL INDIANA

CITY           SKY/WX    TMP DP  RH WIND       PRES   REMARKS
GOSHEN         MOCLDY    68  66  93 CALM      29.80S FOG
LOGANSPORT +   CLOUDY    72  72 100 N3        29.78S
PERU/GRISSOM   MOCLDY    73  73 100 NE3       29.76F
ROCHESTER +    MOCLDY    72  72 100 CALM      29.79S
SOUTH BEND     MOCLDY    69  69 100 NE3       29.79F
WARSAW +       CLOUDY    68  68 100 CALM      29.80S

$$

INZ006>009-017-018-025>027-230900-
NORTHEAST INDIANA

CITY           SKY/WX    TMP DP  RH WIND       PRES   REMARKS
AUBURN +       CLEAR     68  64  88 CALM      29.80F FOG
FORT WAYNE     PTCLDY    70  67  90 CALM      29.78F
HUNTINGTON +   PTCLDY    70  68  95 CALM      29.78F
KENDALLVILLE + FOG       66  66 100 CALM      29.80F VSB 1/2

$$

INZ028-029-035-036-043>045-051>053-230900-
WEST CENTRAL INDIANA

CITY           SKY/WX    TMP DP  RH WIND       PRES   REMARKS
GREENCASTLE +  CLOUDY    68  68 100 S5        29.80R
LAFAYETTE      MOCLDY    74  74 100 CALM      29.76S
TERRE HAUTE    CLOUDY    71  68  90 CALM      29.78R

$$

INZ030>032-037>040-046>048-054>057-064-065-230900-
CENTRAL INDIANA

CITY           SKY/WX    TMP DP  RH WIND       PRES   REMARKS
CP ATTERBURY + CLOUDY    72  68  88 SW7       29.81R
FRANKFORT +    CLOUDY    76  74  94 CALM      29.80R
GREENWOOD *+   CLOUDY   N/A N/A N/A W3        29.80R
INDIANAPOLIS   CLOUDY    73  70  90 SW8       29.79R
-EAGLE CREEK   MOCLDY    75  70  84 S8        29.78S
KOKOMO +       PTCLDY    73  72  96 CALM      29.79F
MARION +       CLOUDY    72  72 100 CALM      29.79F
MT COMFORT *+  CLOUDY    73  72  94 SW6       29.79F
SHELBYVILLE    CLOUDY    75  71  87 SW3       29.80R
ZIONSVILLE +   CLOUDY    73  72  95 SW3       29.79R

$$

INZ033-034-041-042-049-050-058-059-230900-
EAST CENTRAL INDIANA

CITY           SKY/WX    TMP DP  RH WIND       PRES   REMARKS
MUNCIE         CLOUDY    75  72  90 CALM      29.78F
RICHMOND +     CLOUDY    70  70 100 S6        29.82R

$$

INZ060-061-067>069-081>083-085>088-230900-
SOUTHWEST INDIANA

CITY           SKY/WX    TMP DP  RH WIND       PRES   REMARKS
EVANSVILLE     CLOUDY    84  73  69 SW9       29.80S THUNDER
HUNTINGBURG *+ TSTM      72  71  97 NE12      29.86S

$$

INZ062-063-066-070>080-084-089>092-230900-
SOUTH CENTRAL AND SOUTHEAST INDIANA

CITY           SKY/WX    TMP DP  RH WIND       PRES   REMARKS
BEDFORD +      CLOUDY    72  68  88 SW10G16   29.83S THUNDER
BLOOMINGTON    CLOUDY    72  67  84 SW12      29.82S
MADISON *+     CLOUDY    72  70  94 SW6       29.86R
NORTH VERNON + LGT RAIN  72  70  94 S9        29.79F
SEYMOUR +      CLOUDY    72  70  94 S12       29.79F

$$





USA.gov is the U.S. government's official web portal to all federal, state and local government web resources and services.